User: anonymous   Login
Location: Unspecified
(0.0000°N, 0.0000°E)
Time: 09:08:56
(UTC+02:00)
Language:

Cosmos 1953 Rocket - Orbit

View from above orbital plane
View from above orbital plane
View from above satellite
View from above satellite

Ground track
Ground track

The orbit data is extracted from the following two-line orbital elements,

1 19211U 88050B   15116.81454626  .00000583  00000-0  69024-4 0  9996
2 19211 082.5287 214.0231 0022277 171.3446 334.3056 14.82722138450840
Epoch (UTC): 26 April 2015 19:32:56
Eccentricity: 0.0022277
inclination: 82.5287°
perigee height: 605 km
apogee height: 636 km
right ascension of ascending node: 214.0231°
argument of perigee: 171.3446°
revolutions per day: 14.82722138
mean anomaly at epoch: 334.3056°
orbit number at epoch: 45084

The dashed part of the orbit path shows where the satellite is in the earth's shadow,  

DLR